Weather History for Hot Springs, VA

Change the Weather History Date:

Monday, December 29, 2003

  Actual Average Record
Temperature  
Mean Temperature 46 °F -  
Max Temperature 53 °F 33 °F 53 °F (1996)
Min Temperature 39 °F 20 °F 10 °F (2000)
Degree Days  
Heating Degree Days 19    
Moisture  
Dew Point 21 °F    
Average Humidity 38    
Maximum Humidity 70    
Minimum Humidity 22    
Precipitation  
Precipitation 0.00 in - - ()
Sea Level Pressure  
Sea Level Pressure 30.14 in    
Wind  
Wind Speed 11 mph (SW)    
Max Wind Speed 21 mph    
Max Gust Speed 26 mph    
Visibility 10 miles    
Events      
Averages and records for this station are not official NWS values.
T = Trace of Precipitation, MM = Missing Value Source: NWS Daily Summary

Daily Weather History Graph

Daily Weather History Graph

Search for Another Location

Airport:

Trip Planner

Search our weather history database for the weather conditions in past years. The results will help you decide how hot, cold, wet, or windy it might be!

Date:

Astronomy

Dec. 29, 2003 Rise Set
Actual Time 7:34 AM EST 5:08 PM EST
Civil Twilight 7:05 AM EST 5:37 PM EST
Nautical Twilight 6:32 AM EST 6:10 PM EST
Astronomical Twilight 6:00 AM EST 6:42 PM EST
Moon 12:05 PM EST (12/29) No Moon Set
Length of Visible Light 10h 32m
Length of Day
9h 33m
Waxing Crescent, 43% of the Moon is Illuminated
Dec 29
Waxing Crescent
Dec 30
First Quarter
Jan 7
Full
Jan 14
Last Quarter
Jan 21
New

Hourly Weather History & Observations

Time (EST) Temp. Windchill Dew Point Humidity Pressure Visibility Wind Dir Wind Speed Gust Speed Precip Events Conditions
12:00 AM 39.2 °F 33.6 °F 21.2 °F 49% 30.23 in 10.0 mi SSW 8.1 mph - N/A   Clear
12:20 AM 39.2 °F 34.2 °F 21.2 °F 49% 30.22 in 10.0 mi SSW 6.9 mph - N/A   Clear
12:40 AM 41.0 °F 34.3 °F 21.2 °F 45% 30.21 in 10.0 mi South 11.5 mph 16.1 mph N/A   Clear
1:00 AM 41.0 °F 34.3 °F 21.2 °F 45% 30.21 in 10.0 mi SSW 11.5 mph 18.4 mph N/A   Clear
1:20 AM 42.8 °F 37.0 °F 19.4 °F 39% 30.21 in 10.0 mi SW 10.4 mph - N/A   Clear
1:40 AM 44.6 °F 40.2 °F 17.6 °F 34% 30.20 in 10.0 mi SSW 8.1 mph 20.7 mph N/A   Clear
2:00 AM 44.6 °F 38.8 °F 17.6 °F 34% 30.21 in 10.0 mi SSW 11.5 mph 18.4 mph N/A   Clear
2:20 AM 44.6 °F 36.6 °F 17.6 °F 34% 30.21 in 10.0 mi SW 19.6 mph 26.5 mph N/A   Clear
2:40 AM 44.6 °F 37.8 °F 15.8 °F 31% 30.21 in 10.0 mi SW 15.0 mph - N/A   Clear
3:00 AM 44.6 °F 38.4 °F 15.8 °F 31% 30.20 in 10.0 mi SW 12.7 mph 20.7 mph N/A   Clear
3:20 AM 44.6 °F 38.4 °F 17.6 °F 34% 30.20 in 10.0 mi SW 12.7 mph - N/A   Clear
3:40 AM 44.6 °F 38.1 °F 15.8 °F 31% 30.20 in 10.0 mi SW 13.8 mph - N/A   Clear
4:00 AM 44.6 °F 38.8 °F 15.8 °F 31% 30.20 in 10.0 mi SW 11.5 mph - N/A   Clear
4:20 AM 44.6 °F 37.2 °F 17.6 °F 34% 30.20 in 10.0 mi WSW 17.3 mph 21.9 mph N/A   Clear
4:40 AM 44.6 °F 37.2 °F 17.6 °F 34% 30.18 in 10.0 mi WSW 17.3 mph 21.9 mph N/A   Clear
5:00 AM 42.8 °F 34.8 °F 17.6 °F 36% 30.18 in 10.0 mi WSW 17.3 mph - N/A   Clear
5:20 AM 42.8 °F 34.0 °F 19.4 °F 39% 30.18 in 10.0 mi WSW 20.7 mph 24.2 mph N/A   Clear
5:40 AM 44.6 °F 36.9 °F 17.6 °F 34% 30.18 in 10.0 mi WSW 18.4 mph 23.0 mph N/A   Clear
6:00 AM 44.6 °F 37.2 °F 17.6 °F 34% 30.18 in 10.0 mi WSW 17.3 mph - N/A   Clear
6:20 AM 44.6 °F 37.8 °F 15.8 °F 31% 30.18 in 10.0 mi WSW 15.0 mph - N/A   Clear
6:40 AM 42.8 °F 35.1 °F 15.8 °F 34% 30.17 in 10.0 mi WSW 16.1 mph - N/A   Clear
7:00 AM 44.6 °F 37.8 °F 15.8 °F 31% 30.17 in 10.0 mi WSW 15.0 mph - N/A   Clear
7:20 AM 44.6 °F 38.1 °F 15.8 °F 31% 30.17 in 10.0 mi SW 13.8 mph - N/A   Clear
7:40 AM 44.6 °F 38.1 °F 15.8 °F 31% 30.18 in 10.0 mi WSW 13.8 mph - N/A   Clear
8:00 AM 44.6 °F 38.8 °F 15.8 °F 31% 30.18 in 10.0 mi WSW 11.5 mph - N/A   Clear
8:20 AM 48.2 °F - 15.8 °F 27% 30.18 in 10.0 mi SW 15.0 mph - N/A   Clear
8:40 AM 48.2 °F - 15.8 °F 27% 30.18 in 10.0 mi WSW 12.7 mph - N/A   Clear
9:00 AM 51.8 °F - 15.8 °F 24% 30.18 in 10.0 mi WSW 12.7 mph - N/A   Clear
9:20 AM 48.2 °F - 14.0 °F 25% 30.18 in 10.0 mi WSW 12.7 mph - N/A   Clear
9:40 AM 48.2 °F - 15.8 °F 27% 30.19 in 10.0 mi WSW 13.8 mph - N/A   Unknown
10:00 AM 48.2 °F - 17.6 °F 30% 30.18 in 10.0 mi WSW 10.4 mph - N/A   Unknown
10:20 AM 51.8 °F - 15.8 °F 24% 30.17 in 10.0 mi SW 12.7 mph - N/A   Unknown
10:40 AM 51.8 °F - 15.8 °F 24% 30.16 in 10.0 mi WSW 12.7 mph - N/A   Unknown
11:00 AM 53.6 °F - 15.8 °F 22% 30.15 in 10.0 mi SW 11.5 mph 17.3 mph N/A   Clear
11:20 AM 53.6 °F - 17.6 °F 24% 30.14 in 10.0 mi West 8.1 mph - N/A   Clear
11:40 AM 53.6 °F - 19.4 °F 26% 30.12 in 10.0 mi SW 6.9 mph - N/A   Clear
12:00 PM 53.6 °F - 21.2 °F 28% 30.11 in 10.0 mi SW 6.9 mph - N/A   Clear
12:20 PM 53.6 °F - 21.2 °F 28% 30.10 in 10.0 mi SW 9.2 mph - N/A   Clear
12:40 PM 53.6 °F - 19.4 °F 26% 30.09 in 10.0 mi WSW 11.5 mph 17.3 mph N/A   Clear
1:00 PM 53.6 °F - 21.2 °F 28% 30.08 in 10.0 mi WSW 9.2 mph - N/A   Clear
1:20 PM 53.6 °F - 21.2 °F 28% 30.08 in 10.0 mi West 5.8 mph - N/A   Clear
1:40 PM 53.6 °F - 21.2 °F 28% 30.07 in 10.0 mi WSW 9.2 mph - N/A   Clear
2:00 PM 50.0 °F - 24.8 °F 37% 30.06 in 10.0 mi Calm Calm - N/A   Clear
2:20 PM 51.8 °F - 24.8 °F 35% 30.06 in 10.0 mi SE 5.8 mph - N/A   Clear
2:40 PM 50.0 °F - 26.6 °F 40% 30.05 in 10.0 mi SSE 4.6 mph - N/A   Clear
3:00 PM 48.2 °F - 24.8 °F 40% 30.05 in 10.0 mi SSE 5.8 mph - N/A   Clear
3:20 PM 46.4 °F 42.9 °F 24.8 °F 43% 30.05 in 10.0 mi South 6.9 mph - N/A   Clear
3:40 PM 46.4 °F 42.9 °F 26.6 °F 46% 30.05 in 10.0 mi South 6.9 mph - N/A   Clear
4:00 PM 44.6 °F 39.7 °F 26.6 °F 49% 30.06 in 10.0 mi South 9.2 mph - N/A   Clear
4:20 PM 42.8 °F 38.6 °F 26.6 °F 53% 30.05 in 10.0 mi South 6.9 mph - N/A   Clear
4:40 PM 42.8 °F 37.5 °F 26.6 °F 53% 30.05 in 10.0 mi South 9.2 mph - N/A   Clear
5:00 PM 42.8 °F 36.6 °F 26.6 °F 53% 30.06 in 10.0 mi South 11.5 mph - N/A   Clear
5:20 PM 42.8 °F 35.8 °F 28.4 °F 57% 30.06 in 10.0 mi South 13.8 mph 19.6 mph N/A   Clear
5:40 PM 42.8 °F 36.6 °F 30.2 °F 61% 30.06 in 10.0 mi South 11.5 mph 17.3 mph N/A   Clear
6:00 PM 42.8 °F 36.2 °F 30.2 °F 61% 30.04 in 10.0 mi South 12.7 mph 18.4 mph N/A   Clear
6:20 PM 42.8 °F 37.0 °F 30.2 °F 61% 30.04 in 10.0 mi South 10.4 mph - N/A   Clear
6:40 PM 42.8 °F 37.5 °F 32.0 °F 66% 30.04 in 10.0 mi South 9.2 mph - N/A   Clear
7:00 PM 42.8 °F 37.5 °F 33.8 °F 70% 30.04 in 10.0 mi South 9.2 mph 18.4 mph N/A   Clear
7:20 PM 42.8 °F 36.6 °F 33.8 °F 70% 30.04 in 10.0 mi South 11.5 mph - N/A   Clear
7:40 PM 42.8 °F 37.5 °F 33.8 °F 70% 30.04 in 10.0 mi South 9.2 mph - N/A   Clear
8:00 PM 42.8 °F 37.5 °F 33.8 °F 70% 30.02 in 10.0 mi South 9.2 mph - N/A   Clear
8:20 PM 42.8 °F 36.6 °F 35.6 °F 76% 30.02 in 10.0 mi South 11.5 mph 18.4 mph N/A   Clear
8:40 PM 42.8 °F 36.2 °F 35.6 °F 76% 30.01 in 10.0 mi South 12.7 mph 18.4 mph N/A   Clear
9:00 PM 42.8 °F 36.2 °F 37.4 °F 81% 30.00 in 10.0 mi South 12.7 mph 20.7 mph N/A   Clear
9:20 PM 44.6 °F 37.2 °F 37.4 °F 76% 29.99 in 10.0 mi SSW 17.3 mph 20.7 mph N/A   Clear
9:40 PM 44.6 °F 36.4 °F 37.4 °F 76% 29.98 in 10.0 mi SSW 20.7 mph 28.8 mph N/A   Clear
10:00 PM 44.6 °F 36.6 °F 39.2 °F 81% 29.98 in 10.0 mi SSW 19.6 mph 26.5 mph N/A   Clear
10:20 PM 44.6 °F 35.9 °F 39.2 °F 81% 29.97 in 10.0 mi SW 23.0 mph 28.8 mph N/A   Clear
10:40 PM 44.6 °F 36.4 °F 39.2 °F 81% 29.96 in 10.0 mi SW 20.7 mph 28.8 mph N/A   Clear
11:00 PM 42.8 °F 34.8 °F 39.2 °F 87% 29.95 in 10.0 mi SSW 17.3 mph 27.6 mph N/A   Scattered Clouds
11:20 PM 42.8 °F 35.4 °F 39.2 °F 87% 29.93 in 10.0 mi SSW 15.0 mph 26.5 mph N/A   Unknown
11:40 PM 44.6 °F 36.1 °F 39.2 °F 81% 29.93 in 10.0 mi SSW 21.9 mph 32.2 mph N/A   Unknown